Tracking 19170 objects as of 23-May-2018
HD Live streaming from Space Station
objects crossing your sky now

OXP 1

Track OXP 1 now!
10-day predictions
OXP 1 is classified as:


NORAD ID: 22489
Int'l Code: 1993-009A
Perigee: 720.4 km
Apogee: 778.6 km
Inclination: 25.0 °
Period: 99.7 minutes
Semi major axis: 7120 km
RCS: 1.9581 m2 (large)
Launch date: February 9, 1993
Source: United States (US)
Launch site: AIR FORCE EASTERN TEST RANGE (AFETR)
aabbcc
Your satellite tracking list
Your tracking list is empty




NASA's NSSDC Master Catalog

Two Line Element Set (TLE):
1 22489U 93009A   18142.89959393 +.00000240 +00000-0 +15856-4 0  9992
2 22489 024.9663 015.1681 0040815 325.9551 033.8342 14.44901733334286
Source of the keplerian elements: AFSPC